Regional Weather Roundup
Issued by NWS

Home | Current Version | Previous Version | Graphics & Text | Print | Product List | Glossary On
Versions: 1 2 3 4 5 6 7 8 9 10 11 12 13 14 15 16 17 18 19 20 21 22 23 24 25 26 27 28 29 30 31 32 33 34 35 36 37 38 39 40 41 42 43 44 45 46 47 48 49 50
000
ASUS43 KLMK 010910
RWRKY
KENTUCKY REGIONAL WEATHER ROUNDUP
NATIONAL WEATHER SERVICE LOUISVILLE KY
500 AM EDT TUE SEP 01 2015

NOTE "FAIR" INDICATES FEW OR NO CLOUDS BELOW 12,000 FEET
WITH NO SIGNIFICANT WEATHER AND/OR OBSTRUCTIONS TO VISIBILITY.

KYZ001>023-026-027-061>063-070>075-011000-
WESTERN AND SOUTH CENTRAL KENTUCKY

CITY           SKY/WX    TMP DP  RH WIND       PRES   REMARKS
PADUCAH        CLEAR     67  64  90 CALM      30.09R
HENDERSON      MOCLDY    66  63  88 CALM      30.09R
OWENSBORO      MOCLDY    71  68  90 SE5       30.11R
HOPKINSVILLE   CLEAR     68  65  91 CALM      30.10S
BOWLING GREEN  CLEAR     66  64  93 CALM      30.12R
GLASGOW        CLEAR     65  65 100 CALM      30.13S FOG
$$

KYZ024-025-028>034-038-045-046-053-011000-
NORTH CENTRAL KENTUCKY

CITY           SKY/WX    TMP DP  RH WIND       PRES   REMARKS
LOUISVILLE/SDF CLEAR     71  66  84 E5        30.11R
LOUISVILLE/LOU CLEAR     69  66  90 CALM      30.12R
FORT KNOX      CLEAR     65  64  96 CALM      30.11R FOG
$$

KYZ035>037-039>044-047>052-055>060-089>105-011000-
NORTHEAST KENTUCKY

CITY           SKY/WX    TMP DP  RH WIND       PRES   REMARKS
LEXINGTON      CLEAR     67  63  87 CALM      30.14R
COVINGTON      CLEAR     66  64  93 CALM      30.12R
FRANKFORT      CLEAR     65  62  90 CALM      30.12R
$$

KYZ054-064>069-076>088-106>120-011000-
SOUTHEAST KENTUCKY

CITY           SKY/WX    TMP DP  RH WIND       PRES   REMARKS
JACKSON        CLEAR     69  65  86 CALM      30.15R
LONDON         CLEAR     65  61  87 CALM      30.14S
SOMERSET       CLEAR     63  63 100 CALM      30.15R
MIDDLESBORO    MOCLDY    63  63 100 CALM      30.16S
MONTICELLO     FOG       63  63 100 CALM      30.16S VSB<1/4
$$



USA.gov is the U.S. government's official web portal to all federal, state and local government web resources and services.